Satellite: NOAA-17
Catalog number: 27453
Epoch time:      11068.62942013
Element set:    0214
Inclination:      098.3923 deg
RA of node:       112.8540 deg
Eccentricity:    0.0012685
Arg of perigee:   082.0012 deg
Mean anomaly:     278.2588 deg
Mean motion:   14.24243324 rev/day
Decay rate:        6.1e-07 rev/day^2
Epoch rev:           45248
Checksum:              279

Satellite: NOAA-18
Catalog number: 28654
Epoch time:      11068.64465417
Element set:    0697
Inclination:      098.9859 deg
RA of node:       019.6042 deg
Eccentricity:    0.0014867
Arg of perigee:   028.3409 deg
Mean anomaly:     331.8566 deg
Mean motion:   14.11443070 rev/day
Decay rate:       1.19e-06 rev/day^2
Epoch rev:           29888
Checksum:              344

Satellite: NOAA-19
Catalog number: 33591
Epoch time:      11068.61984449
Element set:    0890
Inclination:      098.8192 deg
RA of node:       010.4912 deg
Eccentricity:    0.0013188
Arg of perigee:   257.6723 deg
Mean anomaly:     102.2970 deg
Mean motion:   14.11135789 rev/day
Decay rate:        5.0e-07 rev/day^2
Epoch rev:           10734
Checksum:              308

/EX
SB KEPS @ AMSAT  $ORB11069.M
Orbital Elements  11069.MISC

HR AMSAT ORBITAL ELEMENTS FOR MANNED AND MISCELLANEOUS SATELLITES
FROM WA5QGD FORT WORTH,TX March 10, 2011
Send Subscribe/unsubscribe to KEPS at http://www.amsat.org/mailman/listinfo/kep
BID: ORB11069.M
TO ALL RADIO AMATEURS BT

Satellite: HUBBLE
Catalog number: 20580
Epoch time:      11069.06620450
Element set:     724
Inclination:      028.4715 deg
RA of node:       303.8711 deg
Eccentricity:    0.0003545
Arg of perigee:   147.4930 deg
Mean anomaly:     212.6124 deg
Mean motion:   15.01196317 rev/day
Decay rate:      1.212e-05 rev/day^2
Epoch rev:           94474
Checksum:              257

Satellite: ISS
Catalog number: 25544
Epoch time:      11069.85678132
Element set:     977
Inclination:      051.6457 deg
RA of node:       305.2770 deg
Eccentricity:    0.0005837
Arg of perigee:   054.4251 deg
Mean anomaly:     048.1894 deg
Mean motion:   15.72585793 rev/day
Decay rate:     2.6254e-04 rev/day^2
Epoch rev:           70542
Checksum:              326

Satellite: CO-58
Catalog number: 28895
Epoch time:      11069.65539151
Element set:     820
Inclination:      097.9825 deg
RA of node:       309.7766 deg
Eccentricity:    0.0018114
Arg of perigee:   166.5575 deg
Mean anomaly:     193.6094 deg
Mean motion:   14.60023717 rev/day
Decay rate:       4.63e-06 rev/day^2
Epoch rev:           28586
Checksum:              350

Satellite: FALCON
Catalog number: 30776
Epoch time:      11068.89704845
Element set:    0046
Inclination:      035.4331 deg
RA of node:       230.5297 deg
Eccentricity:    0.0002072
Arg of perigee:   305.8753 deg
Mean anomaly:     054.1771 deg
Mean motion:   15.04190013 rev/day
Decay rate:      2.211e-05 rev/day^2
Epoch rev:           22008
Checksum:              258

Satellite: MAST
Catalog number: 31126
Epoch time:      11069.81586657
Element set:     103
Inclination:      097.9057 deg
RA of node:       102.5585 deg
Eccentricity:    0.0095624
Arg of perigee:   116.7213 deg
Mean anomaly:     244.3821 deg
Mean motion:   14.53684531 rev/day
Decay rate:       2.09e-06 rev/day^2
Epoch rev:           20679
Checksum:              298

Satellite: CAPE1
Catalog number: 31130
Epoch time:      11068.60736582
Element set:     123
Inclination:      097.9105 deg
RA of node:       098.3404 deg
Eccentricity:    0.0103326
Arg of perigee:   129.9629 deg
Mean anomaly:     231.0693 deg
Mean motion:   14.52304728 rev/day
Decay rate:       4.08e-06 rev/day^2
Epoch rev:           20618
Checksum:              278

Satellite: COMPASS
Catalog number: 32787
Epoch time:      11068.17168933
Element set:    0930
Inclination:      097.8585 deg
RA of node:       133.8170 deg
Eccentricity:    0.0016299
Arg of perigee:   139.5998 deg
Mean anomaly:     220.6416 deg
Mean motion:   14.82180175 rev/day
Decay rate:      1.283e-05 rev/day^2
Epoch rev:           15474
Checksum:              330

Satellite: AAUSAT2
Catalog number: 32788
Epoch time:      11068.14740426
Element set:     918
Inclination:      097.8571 deg
RA of node:       133.9855 deg
Eccentricity:    0.0015826
Arg of perigee:   139.2801 deg
Mean anomaly:     220.9651 deg
Mean motion:   14.82346946 rev/day
Decay rate:      1.521e-05 rev/day^2
Epoch rev:           15475
Checksum:              320

Satellite: DO-64
Catalog number: 32789
Epoch time:      11069.87135537
Element set:     936
Inclination:      097.8669 deg
RA of node:       136.5101 deg
Eccentricity:    0.0016159
Arg of perigee:   132.9462 deg
Mean anomaly:     227.3152 deg
Mean motion:   14.82670023 rev/day
Decay rate:      2.422e-05 rev/day^2
Epoch rev:           15501
Checksum:              310

Satellite: CO-66
Catalog number: 32791
Epoch time:      11068.16873850
Element set:    0921
Inclination:      097.8585 deg
RA of node:       133.7832 deg
Eccentricity:    0.0016592
Arg of perigee:   138.3508 deg
Mean anomaly:     221.8957 deg
Mean motion:   14.81915678 rev/day
Decay rate:      1.299e-05 rev/day^2
Epoch rev:           15469
Checksum:              359

